Weather History for Roseau, MN

Change the Weather History Date:

Tuesday, January 7, 2014

  Actual Average Record
Temperature  
Mean Temperature -12 °F -  
Max Temperature -9 °F 7 °F 48 °F (2003)
Min Temperature -14 °F -14 °F -41 °F (1950)
Degree Days  
Heating Degree Days 76    
Moisture  
Dew Point -19 °F    
Average Humidity 73    
Maximum Humidity 77    
Minimum Humidity 65    
Precipitation  
Precipitation 0.00 in - - ()
Sea Level Pressure  
Sea Level Pressure 30.09 in    
Wind  
Wind Speed 8 mph (West)    
Max Wind Speed 10 mph    
Max Gust Speed -    
Visibility 10 miles    
Events      
Averages and records for this station are not official NWS values.
T = Trace of Precipitation, MM = Missing Value Source: NWS Daily Summary

Daily Weather History Graph

Daily Weather History Graph

Search for Another Location

Airport:

Trip Planner

Search our weather history database for the weather conditions in past years. The results will help you decide how hot, cold, wet, or windy it might be!

Date:

Astronomy

Jan. 07, 2014 Rise Set
Actual Time 8:15 AM CST 4:43 PM CST
Civil Twilight 7:38 AM CST 5:20 PM CST
Nautical Twilight 6:58 AM CST 5:59 PM CST
Astronomical Twilight 6:20 AM CST 6:38 PM CST
Moon 11:25 AM CST (1/7) No Moon Set
Length of Visible Light 9h 41m
Length of Day
8h 28m
Waxing Crescent, 46% of the Moon is Illuminated
Jan 7
Waxing Crescent
Jan 7
First Quarter
Jan 15
Full
Jan 23
Last Quarter
Jan 30
New

Hourly Weather History & Observations

Time (CST) Temp. Windchill Dew Point Humidity Pressure Visibility Wind Dir Wind Speed Gust Speed Precip Events Conditions
12:14 AM -13.0 °F -31.3 °F -20.2 °F 70% 29.99 in 10.0 mi West 9.2 mph - N/A   Overcast
12:34 AM -13.0 °F -28.6 °F -20.2 °F 70% 29.99 in 10.0 mi West 6.9 mph - N/A   Overcast
12:54 AM -11.2 °F -27.8 °F -18.4 °F 70% 29.98 in 10.0 mi West 8.1 mph - N/A   Overcast
1:14 AM -11.2 °F -29.0 °F -18.4 °F 70% 29.98 in 10.0 mi West 9.2 mph - N/A   Overcast
1:34 AM -11.2 °F -26.4 °F -18.4 °F 70% 29.98 in 10.0 mi West 6.9 mph - N/A   Overcast
1:54 AM -11.2 °F -26.4 °F -18.4 °F 70% 29.98 in 10.0 mi West 6.9 mph - N/A   Overcast
2:14 AM -11.2 °F -27.8 °F -18.4 °F 70% 29.99 in 10.0 mi West 8.1 mph - N/A   Overcast
2:34 AM -11.2 °F -26.4 °F -18.4 °F 70% 29.99 in 10.0 mi West 6.9 mph - N/A   Overcast
2:54 AM -11.2 °F -24.8 °F -18.4 °F 70% 29.99 in 10.0 mi West 5.8 mph - N/A   Overcast
3:14 AM -11.2 °F -26.4 °F -18.4 °F 70% 29.99 in 10.0 mi WNW 6.9 mph - N/A   Overcast
3:34 AM -11.2 °F -24.8 °F -18.4 °F 70% 29.99 in 10.0 mi West 5.8 mph - N/A   Overcast
3:54 AM -13.0 °F -28.6 °F -18.4 °F 77% 29.99 in 10.0 mi West 6.9 mph - N/A   Scattered Clouds
4:14 AM -13.0 °F -27.0 °F -20.2 °F 70% 29.99 in 10.0 mi West 5.8 mph - N/A   Clear
4:34 AM -13.0 °F -28.6 °F -20.2 °F 70% 29.99 in 10.0 mi West 6.9 mph - N/A   Clear
4:54 AM -14.8 °F -29.1 °F -20.2 °F 77% 29.99 in 10.0 mi West 5.8 mph - N/A   Clear
5:14 AM -14.8 °F -29.1 °F -20.2 °F 77% 29.99 in 10.0 mi West 5.8 mph - N/A   Mostly Cloudy
5:34 AM -14.8 °F -30.8 °F -20.2 °F 77% 29.99 in 10.0 mi West 6.9 mph - N/A   Scattered Clouds
5:54 AM -14.8 °F -29.1 °F -20.2 °F 77% 30.00 in 10.0 mi WNW 5.8 mph - N/A   Clear
6:14 AM -14.8 °F -27.2 °F -20.2 °F 77% 30.00 in 10.0 mi West 4.6 mph - N/A   Scattered Clouds
6:34 AM -14.8 °F -30.8 °F -20.2 °F 77% 30.00 in 10.0 mi West 6.9 mph - N/A   Scattered Clouds
6:54 AM -14.8 °F -30.8 °F -20.2 °F 77% 30.01 in 10.0 mi West 6.9 mph - N/A   Mostly Cloudy
7:14 AM -14.8 °F -30.8 °F -20.2 °F 77% 30.01 in 10.0 mi West 6.9 mph - N/A   Overcast
7:34 AM -14.8 °F -32.2 °F -20.2 °F 77% 30.02 in 10.0 mi West 8.1 mph - N/A   Overcast
7:54 AM -14.8 °F -32.2 °F -20.2 °F 77% 30.02 in 10.0 mi West 8.1 mph - N/A   Overcast
8:14 AM -14.8 °F -29.1 °F -20.2 °F 77% 30.02 in 10.0 mi West 5.8 mph - N/A   Mostly Cloudy
8:34 AM -14.8 °F -30.8 °F -20.2 °F 77% 30.04 in 10.0 mi West 6.9 mph - N/A   Scattered Clouds
8:54 AM -14.8 °F -32.2 °F -20.2 °F 77% 30.05 in 10.0 mi West 8.1 mph - N/A   Clear
9:14 AM -14.8 °F -33.5 °F -20.2 °F 77% 30.06 in 10.0 mi West 9.2 mph - N/A   Clear
9:34 AM -14.8 °F -30.8 °F -22.0 °F 70% 30.06 in 10.0 mi West 6.9 mph - N/A   Clear
9:54 AM -14.8 °F -32.2 °F -22.0 °F 70% 30.07 in 10.0 mi WNW 8.1 mph - N/A   Clear
10:14 AM -14.8 °F -30.8 °F -22.0 °F 70% 30.07 in 10.0 mi WNW 6.9 mph - N/A   Clear
10:34 AM -14.8 °F -30.8 °F -20.2 °F 77% 30.08 in 10.0 mi WNW 6.9 mph - N/A   Clear
10:54 AM -14.8 °F -32.2 °F -22.0 °F 70% 30.08 in 10.0 mi West 8.1 mph - N/A   Clear
11:14 AM -14.8 °F -33.5 °F -20.2 °F 77% 30.08 in 10.0 mi West 9.2 mph - N/A   Mostly Cloudy
11:34 AM -14.8 °F -34.6 °F -20.2 °F 77% 30.08 in 10.0 mi West 10.4 mph - N/A   Overcast
11:54 AM -14.8 °F -34.6 °F -20.2 °F 77% 30.09 in 10.0 mi West 10.4 mph - N/A   Overcast
12:14 PM -13.0 °F -31.3 °F -20.2 °F 70% 30.09 in 10.0 mi West 9.2 mph - N/A   Overcast
12:34 PM -13.0 °F -32.4 °F -20.2 °F 70% 30.10 in 10.0 mi West 10.4 mph - N/A   Overcast
12:54 PM -13.0 °F -30.0 °F -20.2 °F 70% 30.09 in 10.0 mi West 8.1 mph - N/A   Overcast
1:14 PM -11.2 °F -27.8 °F -18.4 °F 70% 30.09 in 10.0 mi West 8.1 mph - N/A   Overcast
1:34 PM -11.2 °F -29.0 °F -18.4 °F 70% 30.09 in 10.0 mi West 9.2 mph - N/A   Scattered Clouds
1:54 PM -11.2 °F -27.8 °F -18.4 °F 70% 30.10 in 10.0 mi West 8.1 mph - N/A   Clear
2:14 PM -11.2 °F -27.8 °F -18.4 °F 70% 30.09 in 10.0 mi West 8.1 mph - N/A   Clear
2:35 PM -11.2 °F -24.8 °F -18.4 °F 70% 30.10 in 10.0 mi West 5.8 mph - N/A   Clear
2:54 PM -9.4 °F -22.7 °F -18.4 °F 65% 30.11 in 10.0 mi WSW 5.8 mph - N/A   Clear
3:14 PM -9.4 °F -24.3 °F -16.6 °F 71% 30.12 in 10.0 mi West 6.9 mph - N/A   Clear
3:35 PM -9.4 °F -24.3 °F -16.6 °F 71% 30.13 in 10.0 mi West 6.9 mph - N/A   Clear
3:54 PM -9.4 °F -22.7 °F -16.6 °F 71% 30.14 in 10.0 mi West 5.8 mph - N/A   Clear
4:14 PM -9.4 °F -22.7 °F -16.6 °F 71% 30.14 in 10.0 mi SW 5.8 mph - N/A   Clear
4:34 PM -9.4 °F -20.9 °F -16.6 °F 71% 30.14 in 10.0 mi WSW 4.6 mph - N/A   Clear
4:54 PM -9.4 °F -20.9 °F -16.6 °F 71% 30.15 in 10.0 mi West 4.6 mph - N/A   Clear
5:14 PM -9.4 °F -25.6 °F -16.6 °F 71% 30.15 in 10.0 mi West 8.1 mph - N/A   Clear
5:34 PM -11.2 °F -30.1 °F -18.4 °F 70% 30.15 in 10.0 mi West 10.4 mph - N/A   Clear
5:54 PM -11.2 °F -29.0 °F -18.4 °F 70% 30.16 in 10.0 mi West 9.2 mph - N/A   Clear
6:14 PM -13.0 °F -30.0 °F -18.4 °F 77% 30.16 in 10.0 mi West 8.1 mph - N/A   Clear
6:34 PM -13.0 °F -30.0 °F -18.4 °F 77% 30.17 in 10.0 mi West 8.1 mph - N/A   Clear
6:54 PM -14.8 °F -32.2 °F -20.2 °F 77% 30.17 in 10.0 mi West 8.1 mph - N/A   Clear
7:14 PM -14.8 °F -33.5 °F -20.2 °F 77% 30.18 in 10.0 mi West 9.2 mph - N/A   Clear
7:34 PM -14.8 °F -30.8 °F -20.2 °F 77% 30.18 in 10.0 mi West 6.9 mph - N/A   Clear
7:54 PM -14.8 °F -34.6 °F -20.2 °F 77% 30.19 in 10.0 mi West 10.4 mph - N/A   Clear
8:14 PM -14.8 °F -33.5 °F -20.2 °F 77% 30.20 in 10.0 mi West 9.2 mph - N/A   Scattered Clouds
8:34 PM -14.8 °F -32.2 °F -20.2 °F 77% 30.19 in 10.0 mi West 8.1 mph - N/A   Mostly Cloudy
8:54 PM -13.0 °F -31.3 °F -18.4 °F 77% 30.19 in 10.0 mi West 9.2 mph - N/A   Overcast
9:14 PM -13.0 °F -30.0 °F -18.4 °F 77% 30.20 in 10.0 mi West 8.1 mph - N/A   Overcast
9:34 PM -13.0 °F -30.0 °F -18.4 °F 77% 30.20 in 10.0 mi West 8.1 mph - N/A   Overcast
9:54 PM -13.0 °F -30.0 °F -18.4 °F 77% 30.20 in 10.0 mi West 8.1 mph - N/A   Overcast
10:15 PM -11.2 °F -26.4 °F -18.4 °F 70% 30.21 in 10.0 mi West 6.9 mph - N/A   Overcast
10:34 PM -11.2 °F -26.4 °F -18.4 °F 70% 30.21 in 10.0 mi West 6.9 mph - N/A   Overcast
10:54 PM -11.2 °F -23.0 °F -18.4 °F 70% 30.21 in 10.0 mi WNW 4.6 mph - N/A   Overcast
11:15 PM -11.2 °F -23.0 °F -16.6 °F 77% 30.21 in 10.0 mi West 4.6 mph - N/A   Overcast
11:34 PM -11.2 °F -23.0 °F -16.6 °F 77% 30.22 in 10.0 mi West 4.6 mph - N/A   Overcast
11:54 PM -9.4 °F -20.9 °F -16.6 °F 71% 30.21 in 10.0 mi West 4.6 mph - N/A   Overcast